Climatologie pour Saint-Brevin les Pins
Jour • Résumé pour février 26, 2017 Système :  Métrique    Anglais   Mixte
« - 1 jour
+ 1 jour »
Jour Semaine Mois Année Personnalisé
  Maximum : Minimum : Moyenne :
Température sous abri : -17.8 °C -12.4 °C -12.1 °C
Point de rosée : -17.8 °C -13.4 °C -12.6 °C
Humidité : Humidity % 85 % 93 %
Vitesse du vent : 0 km/h 0 km/h 12.1 km/h
Rafale : 0 km/h - -
Direction :- - WSW
Pression : 0 hPa 34235.8 hPa -
Précipitations : 7.62 mm    
Historical Graphs
 
 
Tableau de données pour février 26, 2017
Heure Tempé Pt rosée Pression Vent Vitesse Rafale Humidité Taux pluie (/hr) Soleil
-17.8 °C -17.8 °C 0 hPa Calm     Humidity % 0 mm SolarRadiationWatts/m^2 W/m2 Conditions
00:00 -12.4 °C -13.4 °C 34428.8 hPa SSW 15.6 km/h 23.3 km/h 89 % 0 mm 0 W/m2
00:05 -12.4 °C -13.4 °C 34428.8 hPa SSW 15.6 km/h 25.9 km/h 89 % 0 mm 0 W/m2
00:10 -12.3 °C -13.3 °C 34428.8 hPa SW 20.8 km/h 25.9 km/h 89 % 0 mm 0 W/m2
00:15 -12.3 °C -13.3 °C 34428.8 hPa SW 7.7 km/h 25.9 km/h 89 % 0 mm 0 W/m2
00:20 -12.3 °C -13.3 °C 34428.8 hPa SW 7.7 km/h 31.1 km/h 89 % 0 mm 0 W/m2
00:25 -12.3 °C -13.3 °C 34428.8 hPa South 10.3 km/h 31.1 km/h 89 % 0 mm 0 W/m2
00:30 -12.3 °C -13.2 °C 34428.8 hPa SW 12.9 km/h 25.9 km/h 89 % 0 mm 0 W/m2
00:35 -12.3 °C -13.2 °C 34418.7 hPa SSW 23.3 km/h 31.1 km/h 89 % 0 mm 0 W/m2
00:40 -12.3 °C -13.3 °C 34418.7 hPa SSW 15.6 km/h 31.1 km/h 89 % 0 mm 0 W/m2
00:45 -12.3 °C -13.2 °C 34418.7 hPa WSW 18.2 km/h 25.9 km/h 90 % 0 mm 0 W/m2
00:50 -12.3 °C -13.2 °C 34418.7 hPa West 10.3 km/h 28.5 km/h 90 % 0 mm 0 W/m2
00:55 -12.4 °C -13.2 °C 34418.7 hPa SW 10.3 km/h 28.5 km/h 90 % 0 mm 0 W/m2
01:00 -12.4 °C -13.2 °C 34418.7 hPa SSW 7.7 km/h 31.1 km/h 91 % 0 mm 0 W/m2
01:10 -12.4 °C -13.2 °C 34418.7 hPa SSW 10.3 km/h 25.9 km/h 91 % 0 mm 0 W/m2
01:15 -12.3 °C -13.1 °C 34418.7 hPa SSW 7.7 km/h 31.1 km/h 91 % 0 mm 0 W/m2
01:20 -12.3 °C -13.1 °C 34418.7 hPa SSW 5.1 km/h 31.1 km/h 91 % 0 mm 0 W/m2
01:25 -12.4 °C -13.2 °C 34418.7 hPa SW 5.1 km/h 25.9 km/h 91 % 0 mm 0 W/m2
01:30 -12.4 °C -13.1 °C 34418.7 hPa West 12.9 km/h 25.9 km/h 92 % 0 mm 0 W/m2
01:35 -12.4 °C -13.1 °C 34405.1 hPa SW 5.1 km/h 25.9 km/h 92 % 0 mm 0 W/m2
01:40 -12.4 °C -13.1 °C 34405.1 hPa SSE 5.1 km/h 25.9 km/h 92 % 0 mm 0 W/m2
01:45 -12.4 °C -13.1 °C 34405.1 hPa SSW 10.3 km/h 33.6 km/h 92 % 0 mm 0 W/m2
01:50 -12.4 °C -13.1 °C 34405.1 hPa SSW 5.1 km/h 33.6 km/h 92 % 0 mm 0 W/m2
01:55 -12.4 °C -13.1 °C 34405.1 hPa SW 7.7 km/h 23.3 km/h 93 % 0 mm 0 W/m2
02:00 -12.4 °C -13 °C 34405.1 hPa SSW 18.2 km/h 23.3 km/h 93 % 0 mm 0 W/m2
02:05 -12.3 °C -12.9 °C 34405.1 hPa SW 12.9 km/h 20.8 km/h 93 % 0 mm 0 W/m2
02:10 -12.3 °C -12.9 °C 34405.1 hPa Calm   20.8 km/h 93 % 0 mm 0 W/m2
02:15 -12.3 °C -12.9 °C 34405.1 hPa SW 12.9 km/h 20.8 km/h 93 % 0 mm 0 W/m2
02:20 -12.3 °C -12.9 °C 34405.1 hPa WSW 7.7 km/h 23.3 km/h 93 % 0 mm 0 W/m2
02:25 -12.3 °C -12.8 °C 34405.1 hPa WSW 20.8 km/h 25.9 km/h 93 % 0 mm 0 W/m2
02:30 -12.2 °C -12.8 °C 34405.1 hPa SW 12.9 km/h 25.9 km/h 93 % 0 mm 0 W/m2
02:35 -12.2 °C -12.8 °C 34395 hPa West 18.2 km/h 28.5 km/h 93 % 0 mm 0 W/m2
02:40 -12.2 °C -12.8 °C 34405.1 hPa WNW 12.9 km/h 28.5 km/h 92 % 0 mm 0 W/m2
02:45 -12.1 °C -12.8 °C 34405.1 hPa SW 15.6 km/h 28.5 km/h 92 % 0 mm 0 W/m2
02:50 -12.1 °C -12.8 °C 34405.1 hPa WSW 5.1 km/h 28.5 km/h 92 % 0 mm 0 W/m2
02:55 -12.2 °C -12.8 °C 34405.1 hPa SW 7.7 km/h 28.5 km/h 92 % 0 mm 0 W/m2
03:00 -12.2 °C -12.8 °C 34405.1 hPa West 5.1 km/h 28.5 km/h 92 % 0 mm 0 W/m2
03:05 -12.2 °C -12.9 °C 34405.1 hPa WSW 5.1 km/h 23.3 km/h 92 % 0 mm 0 W/m2
03:10 -12.2 °C -12.9 °C 34395 hPa WSW 15.6 km/h 23.3 km/h 92 % 0 mm 0 W/m2
03:15 -12.2 °C -12.9 °C 34395 hPa WSW 15.6 km/h 23.3 km/h 92 % 0 mm 0 W/m2
03:20 -12.2 °C -12.9 °C 34395 hPa SW 12.9 km/h 23.3 km/h 92 % 0 mm 0 W/m2
03:25 -12.2 °C -12.9 °C 34395 hPa SW 15.6 km/h 23.3 km/h 92 % 0 mm 0 W/m2
03:30 -12.2 °C -12.9 °C 34395 hPa WSW 15.6 km/h 23.3 km/h 92 % 0 mm 0 W/m2
03:35 -12.3 °C -12.8 °C 34395 hPa SW 12.9 km/h 23.3 km/h 93 % 0 mm 0 W/m2
03:40 -12.3 °C -12.8 °C 34395 hPa SW 7.7 km/h 23.3 km/h 93 % 0 mm 0 W/m2
03:45 -12.3 °C -12.9 °C 34395 hPa WSW 10.3 km/h 23.3 km/h 93 % 0 mm 0 W/m2
03:50 -12.3 °C -12.9 °C 34395 hPa SW 10.3 km/h 23.3 km/h 93 % 0 mm 0 W/m2
03:55 -12.3 °C -12.9 °C 34384.8 hPa WSW 15.6 km/h 25.9 km/h 93 % 0 mm 0 W/m2
04:00 -12.3 °C -12.9 °C 34384.8 hPa WSW 12.9 km/h 28.5 km/h 93 % 0 mm 0 W/m2
04:05 -12.3 °C -12.9 °C 34384.8 hPa WSW 20.8 km/h 33.6 km/h 93 % 0 mm 0 W/m2
04:10 -12.3 °C -12.9 °C 34384.8 hPa WSW 10.3 km/h 33.6 km/h 93 % 0 mm 0 W/m2
04:20 -12.3 °C -12.8 °C 34384.8 hPa SW 10.3 km/h 28.5 km/h 94 % 0 mm 0 W/m2
04:25 -12.3 °C -12.8 °C 34384.8 hPa SW 7.7 km/h 20.8 km/h 94 % 0 mm 0 W/m2
04:30 -12.3 °C -12.8 °C 34384.8 hPa WSW 12.9 km/h 23.3 km/h 94 % 0 mm 0 W/m2
04:35 -12.3 °C -12.8 °C 34384.8 hPa West 7.7 km/h 25.9 km/h 94 % 0 mm 0 W/m2
04:40 -12.3 °C -12.8 °C 34384.8 hPa WSW 12.9 km/h 25.9 km/h 94 % 0 mm 0 W/m2
04:45 -12.3 °C -12.8 °C 34384.8 hPa WSW 15.6 km/h 25.9 km/h 94 % 0 mm 0 W/m2
04:50 -12.4 °C -12.8 °C 34384.8 hPa WSW 12.9 km/h 20.8 km/h 95 % 0 mm 0 W/m2
04:55 -12.4 °C -12.9 °C 34384.8 hPa WSW 23.3 km/h 25.9 km/h 95 % 0 mm 0 W/m2
05:00 -12.4 °C -12.8 °C 34384.8 hPa SW 12.9 km/h 25.9 km/h 96 % 0 mm 0 W/m2
05:05 -12.4 °C -12.8 °C 34371.3 hPa SW 7.7 km/h 23.3 km/h 96 % 0 mm 0 W/m2
05:10 -12.4 °C -12.8 °C 34371.3 hPa SW 10.3 km/h 25.9 km/h 96 % 0 mm 0 W/m2
05:15 -12.4 °C -12.8 °C 34371.3 hPa WSW 7.7 km/h 25.9 km/h 96 % 0 mm 0 W/m2
05:20 -12.4 °C -12.8 °C 34371.3 hPa SW 15.6 km/h 23.3 km/h 96 % 0 mm 0 W/m2
05:25 -12.4 °C -12.8 °C 34371.3 hPa SSW 7.7 km/h 23.3 km/h 96 % 0 mm 0 W/m2
05:30 -12.4 °C -12.7 °C 34371.3 hPa SW 12.9 km/h 20.8 km/h 97 % 0 mm 0 W/m2
05:35 -12.4 °C -12.7 °C 34371.3 hPa SW 15.6 km/h 18.2 km/h 97 % 0 mm 0 W/m2
05:40 -12.4 °C -12.7 °C 34371.3 hPa SSW 5.1 km/h 25.9 km/h 97 % 0 mm 0 W/m2
05:45 -12.4 °C -12.7 °C 34371.3 hPa WSW 12.9 km/h 28.5 km/h 97 % 0 mm 0 W/m2
05:50 -12.4 °C -12.7 °C 34371.3 hPa SSW 15.6 km/h 28.5 km/h 97 % 0 mm 0 W/m2
05:55 -12.4 °C -12.7 °C 34371.3 hPa SSW 5.1 km/h 25.9 km/h 97 % 0 mm 0 W/m2
06:00 -12.4 °C -12.7 °C 34371.3 hPa WSW 23.3 km/h 25.9 km/h 97 % 0 mm 0 W/m2
06:05 -12.4 °C -12.7 °C 34371.3 hPa West 15.6 km/h 25.9 km/h 97 % 0 mm 0 W/m2
06:10 -12.4 °C -12.7 °C 34371.3 hPa West 31.1 km/h 31.1 km/h 97 % 0 mm 0 W/m2
06:15 -12.4 °C -12.6 °C 34371.3 hPa SW 25.9 km/h 33.6 km/h 97 % 0 mm 0 W/m2
06:20 -12.3 °C -12.6 °C 34384.8 hPa WSW 18.2 km/h 33.6 km/h 97 % 0 mm 0 W/m2
06:25 -12.3 °C -12.6 °C 34371.3 hPa West 10.3 km/h 25.9 km/h 97 % 0 mm 0 W/m2
06:30 -12.3 °C -12.6 °C 34371.3 hPa WSW 2.6 km/h 25.9 km/h 97 % 0 mm 0 W/m2
06:35 -12.3 °C -12.6 °C 34371.3 hPa WSW 7.7 km/h 25.9 km/h 97 % 0 mm 0 W/m2
06:40 -12.3 °C -12.4 °C 34384.8 hPa SSW 2.6 km/h 25.9 km/h 98 % 0 mm 0 W/m2
06:45 -12.3 °C -12.6 °C 34384.8 hPa West 12.9 km/h 23.3 km/h 97 % 0 mm 0 W/m2
06:50 -12.3 °C -12.6 °C 34384.8 hPa West 5.1 km/h 23.3 km/h 97 % 0 mm 0 W/m2
06:55 -12.3 °C -12.5 °C 34384.8 hPa SW 10.3 km/h 23.3 km/h 98 % 0 mm 0 W/m2
07:00 -12.3 °C -12.5 °C 34384.8 hPa SW 18.2 km/h 23.3 km/h 98 % 0 mm 0 W/m2
07:05 -12.3 °C -12.5 °C 34384.8 hPa SW 7.7 km/h 23.3 km/h 98 % 0 mm 0 W/m2
07:10 -12.3 °C -12.5 °C 34384.8 hPa WSW 10.3 km/h 23.3 km/h 98 % 0 mm 0 W/m2
07:15 -12.3 °C -12.4 °C 34384.8 hPa SSW 7.7 km/h 20.8 km/h 98 % 0 mm 0 W/m2
07:20 -12.3 °C -12.4 °C 34384.8 hPa SW 7.7 km/h 23.3 km/h 98 % 0 mm 0 W/m2
07:25 -12.3 °C -12.4 °C 34384.8 hPa WSW 5.1 km/h 23.3 km/h 98 % 0 mm 0 W/m2
07:30 -12.3 °C -12.4 °C 34384.8 hPa SSW 18.2 km/h 18.2 km/h 98 % 0 mm 0 W/m2
07:35 -12.3 °C -12.4 °C 34384.8 hPa SW 10.3 km/h 28.5 km/h 98 % 0 mm 0 W/m2
07:40 -12.2 °C -12.4 °C 34384.8 hPa SSW 10.3 km/h 28.5 km/h 98 % 0 mm 0 W/m2
07:45 -12.2 °C -12.3 °C 34384.8 hPa SSW 23.3 km/h 23.3 km/h 98 % 0 mm 0 W/m2
07:50 -12.2 °C -12.3 °C 34384.8 hPa SW 10.3 km/h 28.5 km/h 98 % 0 mm 0 W/m2
07:55 -12.2 °C -12.3 °C 34384.8 hPa SW 12.9 km/h 28.5 km/h 98 % 0 mm 0 W/m2
08:00 -12.2 °C -12.3 °C 34384.8 hPa SSW 2.6 km/h 18.2 km/h 98 % 0 mm 0 W/m2
08:05 -12.2 °C -12.3 °C 34384.8 hPa WSW 7.7 km/h 18.2 km/h 98 % 0 mm 0 W/m2
08:10 -12.2 °C -12.3 °C 34384.8 hPa WSW 7.7 km/h 18.2 km/h 98 % 0 mm 0 W/m2
08:15 -12.2 °C -12.3 °C 34384.8 hPa West 5.1 km/h 23.3 km/h 98 % 0 mm 9 W/m2
08:20 -12.2 °C -12.3 °C 34384.8 hPa SW 12.9 km/h 23.3 km/h 98 % 0 mm 12 W/m2
08:25 -12.1 °C -12.3 °C 34395 hPa WSW 7.7 km/h 20.8 km/h 98 % 0 mm 11 W/m2
08:30 -12.1 °C -12.3 °C 34395 hPa WSW 7.7 km/h 28.5 km/h 98 % 0 mm 11 W/m2
08:35 -12.1 °C -12.3 °C 34395 hPa WNW 7.7 km/h 31.1 km/h 98 % 0 mm 16 W/m2
08:40 -12.1 °C -12.3 °C 34395 hPa SSW 7.7 km/h 31.1 km/h 98 % 0 mm 19 W/m2
08:45 -12.1 °C -12.3 °C 34395 hPa SSW 7.7 km/h 23.3 km/h 98 % 0 mm 23 W/m2
08:50 -12.1 °C -12.2 °C 34395 hPa SW 5.1 km/h 23.3 km/h 98 % 0 mm 32 W/m2
08:55 -12.1 °C -12.2 °C 34395 hPa WSW 25.9 km/h 25.9 km/h 98 % 0 mm 39 W/m2
09:00 -12.1 °C -12.2 °C 34395 hPa SSW 7.7 km/h 25.9 km/h 98 % 0 mm 46 W/m2
09:05 -12.1 °C -12.2 °C 34395 hPa SW 7.7 km/h 23.3 km/h 98 % 0 mm 58 W/m2
09:10 -12.1 °C -12.2 °C 34395 hPa SW 2.6 km/h 23.3 km/h 98 % 0 mm 63 W/m2
09:15 -12 °C -12.2 °C 34395 hPa NW 10.3 km/h 25.9 km/h 98 % 0 mm 62 W/m2
09:20 -12 °C -12.2 °C 34395 hPa WSW 10.3 km/h 28.5 km/h 98 % 0 mm 72 W/m2
09:25 -12 °C -12.2 °C 34395 hPa SSW 15.6 km/h 28.5 km/h 98 % 0 mm 54 W/m2
09:30 -12 °C -12.2 °C 34395 hPa West 10.3 km/h 23.3 km/h 98 % 0 mm 84 W/m2
09:35 -12 °C -12.2 °C 34395 hPa WSW 5.1 km/h 23.3 km/h 98 % 0 mm 77 W/m2
09:40 -11.9 °C -12.1 °C 34395 hPa SW 7.7 km/h 23.3 km/h 98 % 0 mm 77 W/m2
09:45 -11.9 °C -12.1 °C 34395 hPa SW 7.7 km/h 23.3 km/h 98 % 0 mm 98 W/m2
09:50 -11.9 °C -12.1 °C 34395 hPa SSW 12.9 km/h 28.5 km/h 98 % 0 mm 113 W/m2
09:55 -11.8 °C -12 °C 34395 hPa West 5.1 km/h 28.5 km/h 98 % 0 mm 137 W/m2
10:00 -11.8 °C -11.9 °C 34395 hPa WSW 12.9 km/h 25.9 km/h 98 % 0 mm 120 W/m2
10:05 -11.8 °C -12.1 °C 34395 hPa WSW 7.7 km/h 25.9 km/h 97 % 0 mm 100 W/m2
10:10 -11.8 °C -12.1 °C 34395 hPa WSW 12.9 km/h 28.5 km/h 97 % 0 mm 84 W/m2
10:15 -11.8 °C -12.1 °C 34395 hPa SW 5.1 km/h 28.5 km/h 97 % 0 mm 125 W/m2
10:20 -11.8 °C -12.1 °C 34395 hPa WSW 15.6 km/h 25.9 km/h 97 % 0 mm 118 W/m2
10:25 -11.8 °C -12.1 °C 34405.1 hPa WSW 18.2 km/h 28.5 km/h 97 % 0 mm 148 W/m2
10:30 -11.8 °C -12.1 °C 34405.1 hPa WSW 10.3 km/h 31.1 km/h 97 % 0 mm 113 W/m2
10:35 -11.8 °C -12.1 °C 34405.1 hPa SW 5.1 km/h 31.1 km/h 97 % 0 mm 123 W/m2
10:40 -11.8 °C -12 °C 34405.1 hPa WSW 12.9 km/h 28.5 km/h 97 % 0 mm 104 W/m2
10:45 -11.8 °C -12.1 °C 34395 hPa SW 18.2 km/h 25.9 km/h 97 % 0 mm 162 W/m2
10:50 -11.8 °C -12.1 °C 34395 hPa South 15.6 km/h 25.9 km/h 97 % 0 mm 90 W/m2
10:55 -11.9 °C -12.2 °C 34405.1 hPa SW 18.2 km/h 28.5 km/h 97 % 0 mm 114 W/m2
11:00 -11.9 °C -12.2 °C 34405.1 hPa West 7.7 km/h 28.5 km/h 97 % 0 mm 102 W/m2
11:05 -11.9 °C -12.1 °C 34395 hPa West 10.3 km/h 23.3 km/h 98 % 0 mm 102 W/m2
11:10 -11.9 °C -12.1 °C 34405.1 hPa SW 10.3 km/h 25.9 km/h 98 % 7.62 mm 165 W/m2
11:15 -11.9 °C -12.1 °C 34395 hPa SW 12.9 km/h 25.9 km/h 98 % 7.62 mm 188 W/m2
11:20 -11.8 °C -12 °C 34395 hPa SW 20.8 km/h 25.9 km/h 98 % 7.62 mm 211 W/m2
11:25 -11.8 °C -11.9 °C 34405.1 hPa West 5.1 km/h 25.9 km/h 98 % 7.62 mm 227 W/m2
11:30 -11.8 °C -12.1 °C 34395 hPa West 15.6 km/h 25.9 km/h 97 % 7.62 mm 181 W/m2
11:35 -11.8 °C -12 °C 34405.1 hPa SW 10.3 km/h 25.9 km/h 97 % 7.62 mm 185 W/m2
11:40 -11.8 °C -12 °C 34395 hPa WSW 31.1 km/h 31.1 km/h 97 % 7.62 mm 216 W/m2
11:45 -11.7 °C -11.9 °C 34395 hPa SW 10.3 km/h 31.1 km/h 98 % 7.62 mm 223 W/m2
11:50 -11.6 °C -11.8 °C 34395 hPa WSW 10.3 km/h 31.1 km/h 98 % 7.62 mm 190 W/m2
11:55 -11.6 °C -11.7 °C 34405.1 hPa West 20.8 km/h 31.1 km/h 98 % 7.62 mm 144 W/m2
12:00 -11.6 °C -11.8 °C 34405.1 hPa WNW 12.9 km/h 33.6 km/h 97 % 7.62 mm 97 W/m2
12:05 -11.6 °C -11.9 °C 34405.1 hPa WSW 23.3 km/h 33.6 km/h 97 % 7.62 mm 171 W/m2
12:10 -11.6 °C -11.8 °C 34405.1 hPa West 12.9 km/h 38.8 km/h 97 % 0 mm 197 W/m2
12:15 -11.6 °C -11.8 °C 34405.1 hPa WSW 18.2 km/h 38.8 km/h 97 % 0 mm 246 W/m2
12:20 -11.5 °C -11.8 °C 34405.1 hPa SW 7.7 km/h 31.1 km/h 97 % 0 mm 218 W/m2
12:25 -11.6 °C -11.8 °C 34405.1 hPa SW 7.7 km/h 31.1 km/h 97 % 0 mm 179 W/m2
12:30 -11.6 °C -11.8 °C 34405.1 hPa WSW 15.6 km/h 25.9 km/h 97 % 0 mm 207 W/m2
12:35 -11.6 °C -11.9 °C 34405.1 hPa WSW 12.9 km/h 33.6 km/h 97 % 0 mm 169 W/m2
12:40 -11.6 °C -11.8 °C 34405.1 hPa WSW 2.6 km/h 33.6 km/h 97 % 0 mm 178 W/m2
12:45 -11.6 °C -11.9 °C 34405.1 hPa WSW 25.9 km/h 33.6 km/h 97 % 0 mm 172 W/m2
12:50 -11.6 °C -11.8 °C 34405.1 hPa West 10.3 km/h 31.1 km/h 97 % 0 mm 192 W/m2
13:00 -11.7 °C -12 °C 34405.1 hPa West 12.9 km/h 33.6 km/h 96 % 0 mm 204 W/m2
13:05 -11.6 °C -11.8 °C 34405.1 hPa WSW 15.6 km/h 31.1 km/h 97 % 0 mm 162 W/m2
13:10 -11.6 °C -11.9 °C 34405.1 hPa West 10.3 km/h 33.6 km/h 96 % 0 mm 156 W/m2
13:15 -11.6 °C -12 °C 34405.1 hPa WSW 7.7 km/h 33.6 km/h 96 % 0 mm 190 W/m2
13:20 -11.6 °C -11.9 °C 34405.1 hPa WSW 18.2 km/h 28.5 km/h 96 % 0 mm 234 W/m2
13:25 -11.6 °C -11.9 °C 34405.1 hPa West 7.7 km/h 28.5 km/h 96 % 0 mm 229 W/m2
13:30 -11.6 °C -11.9 °C 34405.1 hPa West 12.9 km/h 36.2 km/h 96 % 0 mm 202 W/m2
13:35 -11.6 °C -11.9 °C 34395 hPa SW 7.7 km/h 36.2 km/h 96 % 0 mm 174 W/m2
13:40 -11.6 °C -12 °C 34395 hPa SSW 15.6 km/h 28.5 km/h 96 % 0 mm 202 W/m2
13:45 -11.6 °C -12 °C 34395 hPa SSW 18.2 km/h 31.1 km/h 96 % 0 mm 195 W/m2
13:50 -11.6 °C -11.9 °C 34395 hPa WSW 12.9 km/h 31.1 km/h 96 % 0 mm 214 W/m2
13:55 -11.5 °C -11.8 °C 34384.8 hPa WSW 7.7 km/h 25.9 km/h 96 % 0 mm 230 W/m2
14:00 -11.4 °C -11.8 °C 34384.8 hPa SSW 10.3 km/h 31.1 km/h 95 % 0 mm 214 W/m2
14:05 -11.4 °C -11.9 °C 34395 hPa Calm   31.1 km/h 94 % 0 mm 125 W/m2
14:10 -11.5 °C -12 °C 34384.8 hPa West 28.5 km/h 28.5 km/h 94 % 0 mm 127 W/m2
14:15 -11.6 °C -12.1 °C 34384.8 hPa WSW 15.6 km/h 28.5 km/h 94 % 0 mm 181 W/m2
14:20 -11.6 °C -12.1 °C 34384.8 hPa WSW 20.8 km/h 33.6 km/h 95 % 0 mm 160 W/m2
14:25 -11.7 °C -12.2 °C 34384.8 hPa West 15.6 km/h 33.6 km/h 94 % 0 mm 90 W/m2
14:30 -11.7 °C -12.2 °C 34384.8 hPa West 15.6 km/h 33.6 km/h 95 % 0 mm 128 W/m2
14:35 -11.7 °C -12.1 °C 34384.8 hPa WNW 7.7 km/h 33.6 km/h 95 % 0 mm 269 W/m2
14:40 -11.7 °C -12.1 °C 34371.3 hPa West 18.2 km/h 31.1 km/h 95 % 0 mm 202 W/m2
14:45 -11.7 °C -12.2 °C 34371.3 hPa SSW 15.6 km/h 31.1 km/h 95 % 0 mm 144 W/m2
14:50 -11.8 °C -12.2 °C 34384.8 hPa West 12.9 km/h 38.8 km/h 95 % 0 mm 202 W/m2
14:55 -11.7 °C -12.1 °C 34371.3 hPa WSW 18.2 km/h 38.8 km/h 96 % 0 mm 251 W/m2
15:00 -11.6 °C -11.9 °C 34371.3 hPa West 10.3 km/h 25.9 km/h 96 % 0 mm 448 W/m2
15:05 -11.5 °C -11.8 °C 34371.3 hPa Calm   23.3 km/h 96 % 0 mm 218 W/m2
15:10 -11.6 °C -11.9 °C 34371.3 hPa WSW 10.3 km/h 20.8 km/h 95 % 0 mm 128 W/m2
15:15 -11.7 °C -12.1 °C 34371.3 hPa WSW 15.6 km/h 28.5 km/h 95 % 0 mm 149 W/m2
15:20 -11.7 °C -12.1 °C 34371.3 hPa SW 20.8 km/h 28.5 km/h 95 % 0 mm 181 W/m2
15:25 -11.7 °C -12.1 °C 34361.1 hPa WNW 15.6 km/h 31.1 km/h 95 % 0 mm 206 W/m2
15:30 -11.6 °C -11.9 °C 34361.1 hPa WSW 5.1 km/h 31.1 km/h 96 % 0 mm 186 W/m2
15:35 -11.7 °C -12 °C 34361.1 hPa WSW 5.1 km/h 31.1 km/h 96 % 0 mm 251 W/m2
15:40 -11.7 °C -12.1 °C 34361.1 hPa SW 20.8 km/h 31.1 km/h 95 % 0 mm 163 W/m2
15:45 -11.7 °C -12.1 °C 34361.1 hPa WSW 23.3 km/h 31.1 km/h 95 % 0 mm 172 W/m2
15:50 -11.7 °C -12.1 °C 34361.1 hPa WSW 12.9 km/h 31.1 km/h 95 % 0 mm 148 W/m2
15:55 -11.7 °C -12.1 °C 34361.1 hPa WSW 18.2 km/h 33.6 km/h 95 % 0 mm 125 W/m2
16:00 -11.8 °C -12.2 °C 34347.6 hPa SW 5.1 km/h 33.6 km/h 95 % 0 mm 123 W/m2
16:05 -11.8 °C -12.2 °C 34347.6 hPa WSW 10.3 km/h 23.3 km/h 95 % 0 mm 116 W/m2
16:10 -11.8 °C -12.2 °C 34347.6 hPa WSW 10.3 km/h 25.9 km/h 95 % 0 mm 114 W/m2
16:15 -11.8 °C -12.2 °C 34347.6 hPa WSW 12.9 km/h 25.9 km/h 95 % 0 mm 105 W/m2
16:25 -11.9 °C -12.3 °C 34347.6 hPa WSW 2.6 km/h 23.3 km/h 95 % 0 mm 62 W/m2
16:30 -11.9 °C -12.3 °C 34347.6 hPa West 12.9 km/h 23.3 km/h 95 % 0 mm 62 W/m2
16:35 -11.9 °C -12.3 °C 34347.6 hPa SW 15.6 km/h 28.5 km/h 95 % 0 mm 83 W/m2
16:40 -11.9 °C -12.4 °C 34347.6 hPa WSW 15.6 km/h 28.5 km/h 94 % 0 mm 84 W/m2
16:45 -11.9 °C -12.4 °C 34347.6 hPa WSW 15.6 km/h 31.1 km/h 94 % 0 mm 76 W/m2
16:50 -11.9 °C -12.5 °C 34337.4 hPa West 10.3 km/h 33.6 km/h 93 % 0 mm 70 W/m2
16:55 -11.8 °C -12.6 °C 34337.4 hPa West 23.3 km/h 33.6 km/h 92 % 0 mm 63 W/m2
17:00 -11.9 °C -12.7 °C 34337.4 hPa WNW 23.3 km/h 33.6 km/h 91 % 0 mm 67 W/m2
17:05 -11.8 °C -12.6 °C 34337.4 hPa West 10.3 km/h 33.6 km/h 91 % 0 mm 54 W/m2
17:10 -11.8 °C -12.6 °C 34337.4 hPa WSW 10.3 km/h 23.3 km/h 91 % 0 mm 47 W/m2
17:15 -11.9 °C -12.7 °C 34337.4 hPa West 7.7 km/h 25.9 km/h 91 % 0 mm 51 W/m2
17:20 -11.9 °C -12.7 °C 34337.4 hPa SSW 2.6 km/h 25.9 km/h 91 % 0 mm 40 W/m2
17:25 -11.9 °C -12.7 °C 34327.3 hPa WSW 18.2 km/h 23.3 km/h 91 % 0 mm 37 W/m2
17:30 -11.9 °C -12.8 °C 34327.3 hPa West 28.5 km/h 31.1 km/h 90 % 0 mm 33 W/m2
17:35 -11.9 °C -12.8 °C 34327.3 hPa WSW 12.9 km/h 31.1 km/h 90 % 0 mm 30 W/m2
17:40 -11.9 °C -12.9 °C 34327.3 hPa West 12.9 km/h 31.1 km/h 89 % 0 mm 28 W/m2
17:45 -11.9 °C -12.9 °C 34327.3 hPa WSW 2.6 km/h 28.5 km/h 89 % 0 mm 25 W/m2
17:50 -11.9 °C -12.9 °C 34327.3 hPa WSW 7.7 km/h 28.5 km/h 89 % 0 mm 21 W/m2
17:55 -11.9 °C -12.9 °C 34327.3 hPa West 18.2 km/h 23.3 km/h 89 % 0 mm 18 W/m2
18:00 -11.9 °C -13 °C 34327.3 hPa SW 5.1 km/h 23.3 km/h 88 % 0 mm 14 W/m2
18:05 -11.9 °C -12.9 °C 34327.3 hPa SSW 10.3 km/h 23.3 km/h 89 % 0 mm 12 W/m2
18:10 -11.9 °C -12.9 °C 34327.3 hPa WSW 15.6 km/h 28.5 km/h 89 % 0 mm 11 W/m2
18:15 -11.9 °C -12.9 °C 34327.3 hPa SSW 10.3 km/h 28.5 km/h 89 % 0 mm 9 W/m2
18:20 -11.9 °C -12.9 °C 34327.3 hPa SSW 12.9 km/h 28.5 km/h 89 % 0 mm 7 W/m2
18:25 -12 °C -12.9 °C 34327.3 hPa SW 10.3 km/h 28.5 km/h 89 % 0 mm 5 W/m2
18:30 -12 °C -12.8 °C 34327.3 hPa SW 18.2 km/h 28.5 km/h 90 % 0 mm 0 W/m2
18:40 -12 °C -12.8 °C 34327.3 hPa SSW 7.7 km/h 28.5 km/h 90 % 0 mm 0 W/m2
18:45 -12 °C -12.9 °C 34327.3 hPa WSW 7.7 km/h 28.5 km/h 89 % 0 mm 0 W/m2
18:50 -12 °C -12.9 °C 34327.3 hPa WSW 20.8 km/h 25.9 km/h 90 % 0 mm 0 W/m2
18:55 -12.1 °C -12.9 °C 34327.3 hPa SW 2.6 km/h 25.9 km/h 90 % 0 mm 0 W/m2
19:00 -12.1 °C -12.9 °C 34327.3 hPa WSW 25.9 km/h 25.9 km/h 90 % 0 mm 0 W/m2
19:05 -12 °C -12.9 °C 34327.3 hPa SW 12.9 km/h 25.9 km/h 90 % 0 mm 0 W/m2
19:10 -12 °C -12.8 °C 34327.3 hPa WSW 12.9 km/h 25.9 km/h 90 % 0 mm 0 W/m2
19:15 -11.9 °C -12.8 °C 34313.7 hPa SW 15.6 km/h 25.9 km/h 90 % 0 mm 0 W/m2
19:20 -11.9 °C -12.8 °C 34313.7 hPa West 10.3 km/h 25.9 km/h 90 % 0 mm 0 W/m2
19:25 -11.9 °C -12.8 °C 34313.7 hPa SW 18.2 km/h 28.5 km/h 90 % 0 mm 0 W/m2
19:30 -11.8 °C -12.7 °C 34313.7 hPa SW 10.3 km/h 36.2 km/h 90 % 0 mm 0 W/m2
19:35 -11.8 °C -12.7 °C 34313.7 hPa SSW 5.1 km/h 36.2 km/h 90 % 0 mm 0 W/m2
19:40 -11.8 °C -12.7 °C 34313.7 hPa SW 18.2 km/h 28.5 km/h 90 % 0 mm 0 W/m2
19:45 -11.8 °C -12.7 °C 34313.7 hPa SSW 7.7 km/h 23.3 km/h 90 % 0 mm 0 W/m2
19:50 -11.8 °C -12.7 °C 34313.7 hPa South 10.3 km/h 28.5 km/h 90 % 0 mm 0 W/m2
19:55 -11.8 °C -12.6 °C 34313.7 hPa SW 12.9 km/h 28.5 km/h 91 % 0 mm 0 W/m2
20:00 -11.8 °C -12.6 °C 34313.7 hPa SW 12.9 km/h 33.6 km/h 91 % 0 mm 0 W/m2
20:05 -11.8 °C -12.6 °C 34313.7 hPa WSW 12.9 km/h 33.6 km/h 91 % 0 mm 0 W/m2
20:10 -11.8 °C -12.6 °C 34313.7 hPa West 5.1 km/h 31.1 km/h 92 % 0 mm 0 W/m2
20:15 -11.9 °C -12.6 °C 34313.7 hPa SW 15.6 km/h 25.9 km/h 92 % 0 mm 0 W/m2
20:20 -12 °C -12.6 °C 34313.7 hPa WSW 18.2 km/h 23.3 km/h 93 % 0 mm 0 W/m2
20:25 -12 °C -12.6 °C 34313.7 hPa WSW 5.1 km/h 31.1 km/h 93 % 0 mm 0 W/m2
20:30 -12.1 °C -12.6 °C 34313.7 hPa SW 7.7 km/h 31.1 km/h 93 % 0 mm 0 W/m2
20:35 -12.1 °C -12.7 °C 34313.7 hPa WSW 15.6 km/h 28.5 km/h 93 % 0 mm 0 W/m2
20:40 -12.1 °C -12.6 °C 34303.6 hPa SW 23.3 km/h 23.3 km/h 94 % 0 mm 0 W/m2
20:45 -12.1 °C -12.6 °C 34303.6 hPa SSW 23.3 km/h 25.9 km/h 94 % 0 mm 0 W/m2
20:50 -12.1 °C -12.6 °C 34303.6 hPa SSW 18.2 km/h 25.9 km/h 94 % 0 mm 0 W/m2
20:55 -12.1 °C -12.6 °C 34303.6 hPa SW 2.6 km/h 25.9 km/h 94 % 0 mm 0 W/m2
21:00 -12.1 °C -12.7 °C 34303.6 hPa WSW 10.3 km/h 25.9 km/h 94 % 0 mm 0 W/m2
21:05 -12.1 °C -12.7 °C 34303.6 hPa SSW 5.1 km/h 20.8 km/h 94 % 0 mm 0 W/m2
21:10 -12.2 °C -12.7 °C 34303.6 hPa SW 2.6 km/h 23.3 km/h 94 % 0 mm 0 W/m2
21:15 -12.2 °C -12.7 °C 34293.4 hPa SW 12.9 km/h 23.3 km/h 94 % 0 mm 0 W/m2
21:20 -12.2 °C -12.8 °C 34293.4 hPa SSW 7.7 km/h 23.3 km/h 93 % 0 mm 0 W/m2
21:25 -12.3 °C -12.8 °C 34293.4 hPa SW 7.7 km/h 23.3 km/h 93 % 0 mm 0 W/m2
21:30 -12.3 °C -12.9 °C 34293.4 hPa West 7.7 km/h 25.9 km/h 92 % 0 mm 0 W/m2
21:35 -12.2 °C -13 °C 34293.4 hPa SW 20.8 km/h 25.9 km/h 91 % 0 mm 0 W/m2
21:40 -12.2 °C -13.1 °C 34293.4 hPa SW 12.9 km/h 31.1 km/h 90 % 0 mm 0 W/m2
21:45 -12.1 °C -13.1 °C 34293.4 hPa SW 7.7 km/h 31.1 km/h 89 % 0 mm 0 W/m2
21:50 -12.1 °C -13.2 °C 34293.4 hPa SW 7.7 km/h 31.1 km/h 88 % 0 mm 0 W/m2
21:55 -12.1 °C -13.2 °C 34279.9 hPa SSW 10.3 km/h 31.1 km/h 88 % 0 mm 0 W/m2
22:00 -12.1 °C -13.2 °C 34279.9 hPa SSE 10.3 km/h 31.1 km/h 88 % 0 mm 0 W/m2
22:05 -12.1 °C -13.2 °C 34279.9 hPa WSW 31.1 km/h 31.1 km/h 88 % 0 mm 0 W/m2
22:10 -12.1 °C -13.2 °C 34279.9 hPa WSW 12.9 km/h 31.1 km/h 87 % 0 mm 0 W/m2
22:15 -12.1 °C -13.3 °C 34269.7 hPa SSW 7.7 km/h 31.1 km/h 86 % 0 mm 0 W/m2
22:20 -12 °C -13.3 °C 34269.7 hPa SW 7.7 km/h 31.1 km/h 86 % 0 mm 0 W/m2
22:25 -12.1 °C -13.3 °C 34269.7 hPa SSW 12.9 km/h 25.9 km/h 86 % 0 mm 0 W/m2
22:30 -12 °C -13.2 °C 34269.7 hPa SW 10.3 km/h 36.2 km/h 87 % 0 mm 0 W/m2
22:40 -12 °C -13.1 °C 34269.7 hPa WSW 7.7 km/h 31.1 km/h 87 % 0 mm 0 W/m2
22:45 -12.1 °C -13.1 °C 34256.2 hPa SW 7.7 km/h 31.1 km/h 88 % 0 mm 0 W/m2
22:50 -12.1 °C -13.1 °C 34269.7 hPa SW 23.3 km/h 28.5 km/h 88 % 0 mm 0 W/m2
22:55 -12.1 °C -13.2 °C 34256.2 hPa West 5.1 km/h 38.8 km/h 88 % 0 mm 0 W/m2
23:00 -12.2 °C -13.2 °C 34256.2 hPa SW 7.7 km/h 38.8 km/h 88 % 0 mm 0 W/m2
23:05 -12.1 °C -13.4 °C 34256.2 hPa SW 10.3 km/h 33.6 km/h 86 % 0 mm 0 W/m2
23:10 -12.1 °C -13.4 °C 34256.2 hPa WSW 23.3 km/h 33.6 km/h 85 % 0 mm 0 W/m2
23:15 -12 °C -13.3 °C 34256.2 hPa SW 12.9 km/h 31.1 km/h 85 % 0 mm 0 W/m2
23:20 -12.1 °C -13.4 °C 34246 hPa WSW 10.3 km/h 36.2 km/h 85 % 0 mm 0 W/m2
23:25 -12.1 °C -13.3 °C 34246 hPa SSW 15.6 km/h 36.2 km/h 86 % 0 mm 0 W/m2
23:30 -12.1 °C -13.3 °C 34246 hPa South 23.3 km/h 28.5 km/h 87 % 0 mm 0 W/m2
23:35 -12.1 °C -13.2 °C 34235.8 hPa South 7.7 km/h 28.5 km/h 88 % 0 mm 0 W/m2
23:40 -12.1 °C -13.1 °C 34235.8 hPa South 7.7 km/h 23.3 km/h 89 % 0 mm 0 W/m2
23:45 -12.1 °C -13.1 °C 34235.8 hPa West 20.8 km/h 28.5 km/h 89 % 0 mm 0 W/m2
23:50 -12.1 °C -13.1 °C 34235.8 hPa SW 20.8 km/h 28.5 km/h 89 % 0 mm 0 W/m2
23:55 -12.1 °C -13.1 °C 34235.8 hPa SSW 7.7 km/h 31.1 km/h 89 % 0 mm 0 W/m2
Avec l'autorisation de Weather Underground - 1.75 mb